User: anonymous   Login
Location: Columbia
(38.9520°N, 92.3340°W)
Time: 03:32:05
(UTC-05:00)
Language:

Cosmos 1603 - Orbit

View from above orbital plane
View from above orbital plane
View from above satellite
View from above satellite

Ground track
Ground track

The orbit data is extracted from the following two-line orbital elements,

1 15333U 84106A   16269.63990135 -.00000064  00000-0 -85946-5 0  9993
2 15333  71.0262 286.3221 0022026 252.7019 107.1694 14.14047316650861
Epoch (UTC): 25 September 2016 15:21:27
Eccentricity: 0.0022026
inclination: 71.0262°
perigee height: 829 km
apogee height: 861 km
right ascension of ascending node: 286.3221°
argument of perigee: 252.7019°
revolutions per day: 14.14047316
mean anomaly at epoch: 107.1694°
orbit number at epoch: 65086

The dashed part of the orbit path shows where the satellite is in the earth's shadow,  

DLR